Home > Time Zones > World Clock > Weather > Macau > Macau > Past weeks

Flag for Macau Weather past 2 weeks in Macau, Macau

Now
55 °F

Clear.


Feels Like: 52 °F
Forecast: 52 / 62 °F
Wind: 15 mph from Northeast

Location: Taipa

Current Time: Dec 18, 2014 at 4:16:12 AM

Latest Report: Dec 18, 2014 at 3:30 AM


Visibility: 10 mi

Pressure: 30.30 "Hg

Humidity: 41%

Dew point: 32 °F

Location of MacauLocation

Historic Weather in Macau — Graph

°F

Macau temperature yesterday

Maximum temperature yesterday: 59 °F (at 12:00 AM)
Minimum temperature yesterday: 54 °F (at 5:00 AM)
Average temperature yesterday: 57 °F

Past Weeks' High & Low Weather Summary

 TemperatureHumidityPressure
High70 °F (Dec 9, 12:00 PM)94% (Dec 3, 3:00 AM)30.39 "Hg (Dec 3, 3:00 AM)
Low54 °F (Dec 13, 5:00 AM)27% (Dec 17, 3:00 PM)29.95 "Hg (Dec 3, 3:30 PM)
Average62 °F66%30.16 "Hg
* Reported Dec 3 3:00 AM — Dec 18 3:00 AM, Macau, Weather by CustomWeather, © 2014

Note: Actual official high and low records may vary slightly from our data, if they occured in-between our weather recording intervals... More about our weather records

Advertising

Macau weather history for previous 24 hours

 ConditionsComfort  
Time TempWeatherWind HumidityBarometerVisibility
3:00 AM
Dec 18
55 °FClear.15 mph41%30.30 "Hg10 mi
2:30 AM55 °FClear.15 mph38%30.30 "Hg10 mi
2:00 AM55 °FClear.15 mph38%30.30 "Hg10 mi
1:30 AM57 °FClear.15 mph36%30.30 "Hg10 mi
1:00 AM57 °FClear.17 mph36%30.30 "Hg10 mi
12:30 AM57 °FClear.17 mph36%30.30 "Hg10 mi
12:00 AM57 °FClear.17 mph36%30.30 "Hg10 mi
11:30 PM
Dec 17
57 °FClear.16 mph36%30.30 "Hg10 mi
11:00 PM59 °FClear.15 mph39%30.30 "Hg10 mi
10:30 PM59 °FClear.16 mph34%30.30 "Hg10 mi
10:00 PM59 °FClear.16 mph34%30.30 "Hg10 mi
9:30 PM59 °FPassing clouds.16 mph39%30.30 "HgN/A
9:00 PM59 °FPassing clouds.15 mph34%30.30 "HgN/A
8:30 PM59 °FClear.16 mph34%30.30 "Hg10 mi
8:00 PM59 °FClear.16 mph36%30.30 "Hg10 mi
7:30 PM59 °FClear.15 mph31%30.30 "Hg10 mi
7:00 PM59 °FClear.17 mph29%30.27 "Hg10 mi
6:30 PM59 °FClear.16 mph31%30.27 "Hg10 mi
6:00 PM59 °FClear.16 mph34%30.27 "Hg10 mi
5:30 PM59 °FSunny.17 mph29%30.27 "Hg10 mi
5:00 PM59 °FSunny.18 mph29%30.24 "Hg10 mi
4:30 PM59 °FSunny.18 mph27%30.24 "Hg10 mi
4:00 PM59 °FSunny.16 mph29%30.24 "Hg10 mi
3:30 PM57 °FSunny.18 mph31%30.24 "Hg10 mi
3:00 PM59 °FSunny.18 mph27%30.27 "Hg10 mi
2:30 PM57 °FSunny.20 mph31%30.27 "Hg10 mi
2:00 PM57 °FSunny.20 mph29%30.27 "Hg10 mi
1:30 PM57 °FSunny.21 mph31%30.30 "Hg10 mi
1:00 PM57 °FSunny.21 mph33%30.33 "Hg10 mi
12:30 PM55 °FSunny.23 mph36%30.33 "Hg10 mi
12:00 PM55 °FSunny.23 mph36%30.36 "Hg10 mi
11:30 AM55 °FSunny.24 mph31%30.39 "Hg10 mi
11:00 AM54 °FSunny.25 mph38%30.39 "Hg10 mi
10:30 AM54 °FSunny.25 mph41%30.39 "Hg10 mi
10:00 AM54 °FSunny.26 mph41%30.39 "Hg10 mi
9:30 AM54 °FSunny.26 mph41%30.39 "Hg10 mi
9:00 AM54 °FSunny.28 mph44%30.39 "Hg10 mi
8:30 AM54 °FSunny.29 mph38%30.39 "Hg10 mi
7:30 AM54 °FSunny.30 mph41%30.36 "Hg10 mi
7:00 AM54 °FSunny.32 mph38%30.36 "Hg10 mi
6:30 AM54 °FClear.32 mph41%30.36 "Hg10 mi
6:00 AM54 °FClear.30 mph44%30.33 "Hg10 mi
5:30 AM54 °FClear.30 mph47%30.33 "Hg10 mi
5:00 AM54 °FClear.31 mph47%30.33 "Hg10 mi
4:30 AM55 °FClear.30 mph47%30.30 "Hg10 mi
4:00 AM55 °FClear.31 mph41%30.30 "Hg10 mi
Weather by CustomWeather, © 2014

See weather overviewHow to use our weather pages